Location: Bailleul
(50.3375°N, 2.8513°E)
Time: 04:31:31
(UTC+00:00)

Cosmos 1980 - Pass Details

Date: 29 October 2021
Orbit: 839 x 847 km, 71.0° (Epoch: 01 December)

Event Time Altitude Azimuth Distance (km) Brightness Sun altitude
Exits shadow 02:12:59 13° 8° (N) 2,282 6.3 -40.8°
Maximum altitude 02:14:38 14° 27° (NNE) 2,189 6.3 -40.6°
Drops below altitude 10° 02:17:34 10° 58° (ENE) 2,471 6.8 -40.2°
Sets 02:21:20 0° 83° (E) 3,405 7.6 -39.7°
